NOAA 5 (9057 NORAD) Tracking and Keplerian Element Data

This shows tracking and keplerian element data for the satellite.

Feedback or suggestion? Click here.




ElementValue
Catalog9057
NameNOAA 5
Epoch Orbit19281
Epoch Day34.8302827
Epoch Year2025
RAAN14.1251
Inclination102.2432
Eccentricity0.0009573
Argument of Perigee170.6052
Mean Anonmoly249.9009
Mean Motion12.37812773
Decay Rate-1.9E-07
L11 09057U 76077A 25034.83028270 -.00000019 00000+0 20385-3 0 9993
L22 09057 102.2432 14.1251 0009573 170.6052 249.9009 12.37812773192811



Live tracking and technical data element details for NOAA 5 (NORAD 9057). NOAA 5 can be tracked NOW for your location showing map with azimuth and elevation plus other details from your city location.







IsCatalogInMostPopularTable: catalog: 9057, numindb: 473
Update: records affected: 1



GetName: 9057 NOAA 5

Hit Count: updated at: Sat, 17 May 2025 10:07:10 GMT